TimeEST,TemperatureF,Dew PointF,Humidity,Sea Level PressureIn,VisibilityMPH,Wind Direction,Wind SpeedMPH,Gust SpeedMPH,PrecipitationIn,Events,Conditions,WindDirDegrees,DateUTC
12:15 AM,33.8,32.0,93,29.94,7.0,Calm,Calm,-,N/A,,Overcast,0,2013-02-06 05:15:00
12:35 AM,33.8,33.8,100,29.95,7.0,Calm,Calm,-,N/A,,Overcast,0,2013-02-06 05:35:00
12:55 AM,33.8,33.8,100,29.95,10.0,North,-9999.0,-,N/A,,Overcast,0,2013-02-06 05:55:00
1:15 AM,33.8,32.0,93,29.95,10.0,Calm,Calm,-,N/A,,Overcast,0,2013-02-06 06:15:00
1:35 AM,33.8,32.0,93,29.94,7.0,Calm,Calm,-,N/A,,Mostly Cloudy,0,2013-02-06 06:35:00
2:15 AM,32.0,32.0,100,29.95,7.0,Calm,Calm,-,N/A,,Overcast,0,2013-02-06 07:15:00
2:35 AM,33.8,32.0,93,29.95,7.0,Calm,Calm,-,N/A,,Overcast,0,2013-02-06 07:35:00
3:15 AM,32.0,32.0,100,29.95,7.0,West,3.5,-,N/A,,Overcast,270,2013-02-06 08:15:00
3:35 AM,32.0,32.0,100,29.96,7.0,Calm,Calm,-,N/A,,Overcast,0,2013-02-06 08:35:00
3:55 AM,33.8,32.0,93,29.97,10.0,Calm,Calm,-,N/A,,Overcast,0,2013-02-06 08:55:00
4:15 AM,33.8,33.8,100,29.98,10.0,Calm,Calm,-,N/A,,Overcast,0,2013-02-06 09:15:00
4:35 AM,33.8,33.8,100,29.99,10.0,NNW,5.8,-,N/A,,Overcast,330,2013-02-06 09:35:00
4:55 AM,37.4,33.8,87,30.01,10.0,NNW,4.6,-,N/A,,Overcast,330,2013-02-06 09:55:00
5:15 AM,37.4,33.8,87,30.02,10.0,North,-9999.0,-,N/A,,Overcast,0,2013-02-06 10:15:00
5:35 AM,35.6,33.8,93,30.03,10.0,NW,6.9,-,N/A,,Overcast,310,2013-02-06 10:35:00
5:55 AM,37.4,33.8,87,30.04,10.0,North,9.2,-,N/A,,Overcast,350,2013-02-06 10:55:00
6:15 AM,37.4,33.8,87,30.04,10.0,North,5.8,-,N/A,,Overcast,350,2013-02-06 11:15:00
6:35 AM,37.4,33.8,87,30.06,10.0,NW,10.4,17.3,N/A,,Mostly Cloudy,320,2013-02-06 11:35:00
6:55 AM,39.2,33.8,81,30.08,10.0,NW,10.4,-,N/A,,Overcast,320,2013-02-06 11:55:00
7:15 AM,39.2,33.8,81,30.08,10.0,North,6.9,-,N/A,,Overcast,360,2013-02-06 12:15:00
7:35 AM,37.4,32.0,81,30.10,10.0,NW,9.2,-,N/A,,Overcast,310,2013-02-06 12:35:00
7:55 AM,39.2,32.0,75,30.12,10.0,NW,12.7,20.7,N/A,,Overcast,310,2013-02-06 12:55:00
8:35 AM,39.2,30.2,70,30.14,10.0,NNW,13.8,21.9,N/A,,Mostly Cloudy,340,2013-02-06 13:35:00
8:55 AM,39.2,32.0,75,30.15,10.0,NNW,10.4,-,N/A,,Overcast,330,2013-02-06 13:55:00
9:15 AM,39.2,32.0,75,30.15,10.0,NW,16.1,-,N/A,,Overcast,320,2013-02-06 14:15:00
10:15 AM,41.0,32.0,70,30.18,10.0,WNW,16.1,23.0,N/A,,Mostly Cloudy,300,2013-02-06 15:15:00
10:35 AM,39.2,30.2,70,30.19,10.0,NW,9.2,17.3,N/A,,Scattered Clouds,320,2013-02-06 15:35:00
10:55 AM,41.0,30.2,65,30.20,10.0,NW,15.0,23.0,N/A,,Mostly Cloudy,320,2013-02-06 15:55:00
11:15 AM,41.0,30.2,65,30.21,10.0,WNW,17.3,25.3,N/A,,Overcast,290,2013-02-06 16:15:00
11:35 AM,42.8,30.2,61,30.20,10.0,NW,15.0,24.2,N/A,,Scattered Clouds,310,2013-02-06 16:35:00
11:55 AM,42.8,30.2,61,30.21,10.0,NW,17.3,23.0,N/A,,Scattered Clouds,320,2013-02-06 16:55:00
12:15 PM,42.8,30.2,61,30.21,10.0,NW,18.4,25.3,N/A,,Overcast,320,2013-02-06 17:15:00
12:35 PM,44.6,30.2,57,30.21,10.0,NW,17.3,24.2,N/A,,Overcast,310,2013-02-06 17:35:00
12:55 PM,44.6,30.2,57,30.20,10.0,NNW,20.7,27.6,N/A,,Scattered Clouds,330,2013-02-06 17:55:00
1:15 PM,44.6,30.2,57,30.20,10.0,NNW,23.0,31.1,N/A,,Clear,340,2013-02-06 18:15:00
1:35 PM,44.6,30.2,57,30.20,10.0,NW,20.7,24.2,N/A,,Clear,320,2013-02-06 18:35:00
1:55 PM,42.8,30.2,61,30.21,10.0,NNW,20.7,27.6,N/A,,Clear,340,2013-02-06 18:55:00
2:15 PM,44.6,30.2,57,30.21,10.0,NNW,19.6,23.0,N/A,,Clear,330,2013-02-06 19:15:00
2:35 PM,44.6,30.2,57,30.21,10.0,NW,11.5,19.6,N/A,,Clear,320,2013-02-06 19:35:00
2:55 PM,42.8,30.2,61,30.22,10.0,NNW,16.1,19.6,N/A,,Clear,330,2013-02-06 19:55:00
3:15 PM,42.8,30.2,61,30.22,10.0,NNW,12.7,19.6,N/A,,Clear,330,2013-02-06 20:15:00
3:35 PM,42.8,30.2,61,30.22,10.0,NNW,11.5,17.3,N/A,,Clear,330,2013-02-06 20:35:00
3:55 PM,42.8,30.2,61,30.23,10.0,NNW,10.4,16.1,N/A,,Clear,330,2013-02-06 20:55:00
4:15 PM,42.8,30.2,61,30.23,10.0,NW,10.4,18.4,N/A,,Clear,320,2013-02-06 21:15:00
4:35 PM,42.8,30.2,61,30.24,10.0,NNW,17.3,20.7,N/A,,Clear,330,2013-02-06 21:35:00
4:55 PM,41.0,30.2,65,30.25,10.0,NNW,13.8,20.7,N/A,,Clear,330,2013-02-06 21:55:00
5:15 PM,41.0,30.2,65,30.26,10.0,North,12.7,20.7,N/A,,Clear,350,2013-02-06 22:15:00
5:35 PM,39.2,28.4,65,30.26,10.0,North,8.1,-,N/A,,Clear,10,2013-02-06 22:35:00
5:55 PM,37.4,28.4,70,30.27,10.0,North,9.2,-,N/A,,Clear,360,2013-02-06 22:55:00
6:15 PM,37.4,28.4,70,30.27,10.0,North,9.2,-,N/A,,Clear,360,2013-02-06 23:15:00
6:35 PM,37.4,28.4,70,30.28,10.0,North,10.4,-,N/A,,Clear,360,2013-02-06 23:35:00
6:55 PM,35.6,28.4,75,30.28,10.0,North,8.1,-,N/A,,Clear,350,2013-02-06 23:55:00
7:15 PM,35.6,28.4,75,30.29,10.0,NNW,9.2,-,N/A,,Clear,330,2013-02-07 00:15:00
7:35 PM,35.6,28.4,75,30.31,10.0,NNW,8.1,-,N/A,,Clear,330,2013-02-07 00:35:00
7:55 PM,35.6,28.4,75,30.31,10.0,Calm,Calm,-,N/A,,Clear,0,2013-02-07 00:55:00
8:15 PM,33.8,28.4,81,30.31,10.0,NE,5.8,-,N/A,,Clear,50,2013-02-07 01:15:00
8:35 PM,35.6,28.4,75,30.32,10.0,Calm,Calm,-,N/A,,Clear,0,2013-02-07 01:35:00
8:55 PM,33.8,26.6,75,30.32,10.0,North,6.9,-,N/A,,Clear,360,2013-02-07 01:55:00
9:15 PM,33.8,26.6,75,30.33,10.0,NNE,6.9,-,N/A,,Clear,20,2013-02-07 02:15:00
9:35 PM,35.6,26.6,70,30.33,10.0,North,12.7,-,N/A,,Clear,10,2013-02-07 02:35:00
9:55 PM,33.8,26.6,75,30.33,10.0,NNE,6.9,-,N/A,,Clear,20,2013-02-07 02:55:00
10:15 PM,33.8,26.6,75,30.34,10.0,NNE,4.6,-,N/A,,Clear,30,2013-02-07 03:15:00
10:35 PM,33.8,24.8,70,30.35,10.0,NNE,6.9,-,N/A,,Clear,30,2013-02-07 03:35:00
10:55 PM,32.0,24.8,75,30.34,10.0,NNE,4.6,-,N/A,,Clear,30,2013-02-07 03:55:00
11:15 PM,32.0,24.8,75,30.33,10.0,Calm,Calm,-,N/A,,Clear,0,2013-02-07 04:15:00
11:35 PM,32.0,24.8,75,30.34,10.0,Calm,Calm,-,N/A,,Clear,0,2013-02-07 04:35:00
11:55 PM,32.0,24.8,75,30.33,10.0,East,3.5,-,N/A,,Clear,80,2013-02-07 04:55:00